Location: Lake Sonoma
(38.7200°N, 123.0564°W)
Time: 17:00:59
(UTC-07:00)

Amateur Radio Satellites - All Passes

Search period start: 28 May 2017 16:30
Search period end: 29 May 2017 16:30
Location: Lake Sonoma, 38.7200°N, 123.0564°W

Satellite Date Start Highest point End Downlink Frequencies (MHz)
Time Altitude Azimuth
CUBESAT XI-V 28 May 16:39:17 16:41:30 13° 91° (E) 16:43:43 437.345
ITAMSAT 1 28 May 16:46:34 16:50:50 26° 264° (W) 16:55:09 435.822/435.867
AO-7 28 May 16:51:08 16:58:45 40° 261° (W) 17:06:27 .
CUTE-I 28 May 17:20:23 17:23:16 15° 61° (ENE) 17:26:08 437.470
MOZHAYETS 4 28 May 17:22:43 17:26:55 35° 290° (WNW) 17:31:06
XW-2F 28 May 17:28:11 17:29:28 11° 65° (ENE) 17:30:46 145.980 - 146.000
ITUPSAT 1 28 May 17:29:40 17:33:09 20° 295° (WNW) 17:36:38 437.325
XW-2C 28 May 17:30:30 17:32:19 13° 66° (ENE) 17:34:07 145.795 - 145.815
KAITUO 1B 28 May 17:32:35 17:33:07 10° 65° (ENE) 17:33:38 145.475/437.950
KKS-1 28 May 17:58:33 18:03:00 81° 103° (ESE) 18:07:27 437.445
DOVE 4 28 May 17:58:39 18:03:10 60° 76° (ENE) 18:07:28 437.250
HO-68 28 May 18:00:56 18:04:51 16° 55° (NE) 18:08:47 435.675
LilacSat-2 28 May 18:09:16 18:12:52 40° 73° (ENE) 18:16:31 437.200
CUBESAT XI-V 28 May 18:14:39 18:19:12 55° 286° (WNW) 18:23:41 437.345
STARS 28 May 18:22:50 18:27:11 62° 101° (ESE) 18:31:32 437.465
XW-2D 28 May 18:40:27 18:44:15 79° 257° (WSW) 18:48:06 145.860 - 145.880
XW-2B 28 May 18:48:30 18:52:17 64° 260° (W) 18:56:06 145.730 - 145.750
NUDT-PHONESAT 28 May 18:50:57 18:54:39 79° 258° (WSW) 18:58:24 437.300
CUTE-I 28 May 18:57:24 19:02:41 70° 258° (WSW) 19:07:59 437.470
CUTE 1.7 + AOD 2 28 May 18:57:48 19:01:00 21° 68° (ENE) 19:04:13 437.475
XW-2F 28 May 18:59:29 19:03:09 47° 261° (W) 19:06:52 145.980 - 146.000
XW-2C 28 May 19:02:30 19:06:07 41° 262° (W) 19:09:46 145.795 - 145.815
KAITUO 1B 28 May 19:02:56 19:06:36 53° 260° (W) 19:10:21 145.475/437.950
PCSat 28 May 19:15:52 19:21:17 83° 116° (ESE) 19:26:44 145.827
Tancredo 1 28 May 19:21:56 19:24:51 42° 136° (SE) 19:27:47 437.200
DOVE 4 28 May 19:39:50 19:41:09 11° 268° (W) 19:42:27 437.250
SEEDS 28 May 19:41:27 19:45:26 40° 73° (ENE) 19:49:26 437.485
HO-68 28 May 19:44:18 19:51:29 83° 73° (ENE) 19:58:43 435.675
LilacSat-2 28 May 19:45:38 19:47:20 13° 268° (W) 19:49:02 437.200
CUBEBUG 2 28 May 19:59:58 20:03:57 48° 73° (ENE) 20:08:04 437.445
STARS 28 May 20:01:16 20:02:59 12° 297° (WNW) 20:04:41 437.465
UWE-3 28 May 20:05:21 20:09:06 32° 71° (ENE) 20:12:56 435.000/436.395/437.385
XW-2A 28 May 20:16:29 20:19:41 43° 261° (W) 20:22:55 145.665 - 145.685
ISS 28 May 20:16:45 20:20:02 79° 322° (NW) 20:23:21 437.550
Oscar 11 28 May 20:28:08 20:31:39 24° 69° (ENE) 20:35:11 .
CUTE 1.7 + AOD 2 28 May 20:32:48 20:36:37 31° 263° (W) 20:40:28 437.475
AAUSAT CUBESAT 2 28 May 20:33:28 20:37:39 76° 75° (ENE) 20:41:50 437.432
STRAND 1 28 May 20:35:23 20:40:33 72° 102° (ESE) 20:45:42 437.568
AO-73 28 May 20:57:00 21:01:10 64° 75° (ENE) 21:05:28 145.935
SO-50 28 May 20:57:14 20:58:39 11° 107° (ESE) 21:00:05 436.795
Tancredo 1 28 May 20:58:17 21:00:43 21° 333° (NNW) 21:03:10 437.200
PCSat 28 May 21:02:05 21:05:21 16° 315° (NW) 21:08:39 145.827
ZACube-1 28 May 21:12:30 21:16:42 75° 257° (WSW) 21:21:02 437.345
SEEDS 28 May 21:18:42 21:21:16 16° 268° (W) 21:23:50 437.485
M-CUBED/EXP-1 PRIME 28 May 21:20:23 21:22:53 20° 101° (E) 21:25:24 437.505
FO-29 28 May 21:30:59 21:32:16 10° 89° (E) 21:33:33 435.910
EO-88 28 May 21:31:46 21:34:32 21° 70° (ENE) 21:37:18 145.990 - 145.960
HO-68 28 May 21:35:44 21:39:56 16° 269° (W) 21:44:10 435.675
CUBEBUG 2 28 May 21:39:06 21:40:53 12° 269° (W) 21:42:40 437.445
UWE-3 28 May 21:42:38 21:45:38 19° 267° (W) 21:48:41 435.000/436.395/437.385
ISS 28 May 21:54:55 21:56:59 15° 339° (NNW) 21:59:03 437.550
Oscar 11 28 May 22:03:58 22:07:39 27° 264° (W) 22:11:22 .
DELFI C3 28 May 22:04:39 22:08:38 83° 80° (E) 22:12:38 145.870
UNISAT 6 28 May 22:10:24 22:13:18 16° 92° (E) 22:16:11 437.425
STRAND 1 28 May 22:16:31 22:19:06 14° 298° (WNW) 22:21:40 437.568
SO-50 28 May 22:33:56 22:38:31 71° 303° (WNW) 22:43:04 436.795
ESTCUBE 1 28 May 22:43:41 22:46:17 15° 64° (ENE) 22:48:52 437.505/2401.250
M-CUBED/EXP-1 PRIME 28 May 22:55:00 22:57:15 17° 296° (WNW) 22:59:29 437.505
EO-88 28 May 23:05:10 23:08:04 22° 265° (W) 23:11:00 145.990 - 145.960
PRISM 28 May 23:05:40 23:09:44 80° 102° (ESE) 23:13:47 437.425
FO-29 28 May 23:11:18 23:17:57 73° 102° (ESE) 23:25:24 435.910
TIGRISAT 28 May 23:13:02 23:17:41 72° 102° (ESE) 23:22:22 435.000
VELOX 1 28 May 23:29:22 23:30:48 11° 63° (ENE) 23:32:15 145.980
LO-87 28 May 23:38:53 23:42:25 71° 259° (W) 23:45:57 145.935 - 145.965
UNISAT 6 28 May 23:45:45 23:50:12 47° 287° (WNW) 23:54:40 437.425
RS-15 28 May 23:55:57 23:59:16 11° 93° (E) 00:02:36 29.354- 29.394
YUBILEINY 29 May 00:03:02 00:08:47 20° 79° (E) 00:14:33 435.215
ESTCUBE 1 29 May 00:18:12 00:22:38 51° 260° (W) 00:27:03 437.505/2401.250
SO-50 29 May 00:18:52 00:19:46 10° 321° (NW) 00:20:42 436.795
NANOSAT C BR1 29 May 00:25:49 00:29:25 26° 96° (E) 00:33:01 145.865
POLYITAN 1 29 May 00:32:40 00:36:36 35° 98° (E) 00:40:32 437.675
50 SAT 29 May 00:33:36 00:36:26 24° 71° (ENE) 00:39:15 437.505
DUCHIFAT 1 29 May 00:34:56 00:38:40 30° 97° (E) 00:42:24 145.980
SPROUT 29 May 00:36:23 00:40:33 62° 74° (ENE) 00:44:45 437.525
QB50P2 29 May 00:41:20 00:45:29 48° 99° (E) 00:49:38 145.880/145.840
BUGSAT 1 29 May 00:44:48 00:45:38 10° 91° (E) 00:46:27 437.445
TIGRISAT 29 May 00:52:06 00:53:45 12° 297° (WNW) 00:55:25 435.000
AIST 2D 29 May 00:53:28 00:56:55 48° 285° (WNW) 01:00:21 435.315
FO-29 29 May 00:57:48 01:02:29 21° 297° (WNW) 01:07:30 435.910
VELOX 1 29 May 01:02:17 01:06:40 66° 259° (WSW) 01:11:04 145.980
ISS 29 May 01:10:14 01:12:17 15° 20° (NNE) 01:14:19 437.550
UKube-1 29 May 01:16:05 01:20:06 39° 71° (ENE) 01:24:07 .
EO-79 29 May 01:17:27 01:21:41 68° 286° (WNW) 01:25:55 145.935-145.965
DX 1 29 May 01:29:00 01:33:20 85° 79° (E) 01:37:42 434.975-435.025
Tancredo 1 29 May 01:48:02 01:50:52 33° 32° (NNE) 01:53:40 437.200
YUBILEINY 29 May 01:55:46 02:04:29 79° 278° (W) 02:13:18 435.215
RS-15 29 May 01:57:18 02:09:04 63° 113° (ESE) 02:21:09 29.354- 29.394
NANOSAT C BR1 29 May 02:01:34 02:05:00 24° 291° (WNW) 02:08:27 145.865
50 SAT 29 May 02:06:59 02:09:15 16° 265° (W) 02:11:32 437.505
POLYITAN 1 29 May 02:09:06 02:12:07 19° 293° (WNW) 02:15:07 437.675
DUCHIFAT 1 29 May 02:10:55 02:14:10 22° 292° (WNW) 02:17:24 145.980
Gurwin Techsat 1B 29 May 02:12:52 02:17:03 23° 94° (E) 02:21:13 435.225
Oscar 19 29 May 02:12:54 02:17:43 38° 98° (E) 02:22:28 437.125/150
BUGSAT 1 29 May 02:17:12 02:21:17 57° 286° (WNW) 02:25:24 437.445
QB50P2 29 May 02:18:35 02:20:50 14° 295° (WNW) 02:23:06 145.880/145.840
ISS 29 May 02:45:56 02:49:13 79° 38° (NE) 02:52:30 437.550
MOZHAYETS 4 29 May 02:47:09 02:50:18 18° 66° (ENE) 02:53:27
UKube-1 29 May 02:53:33 02:56:15 16° 266° (W) 02:58:59 .
ITUPSAT 1 29 May 02:56:23 03:00:51 42° 71° (ENE) 03:05:21 437.325
AO-7 29 May 03:04:15 03:07:36 13° 89° (E) 03:10:56 .
O/OREOS (USA 219) 29 May 03:10:18 03:14:01 25° 102° (ESE) 03:17:44 437.305
JUGNU 29 May 03:14:06 03:15:17 11° 174° (S) 03:16:30 437.505
ITAMSAT 1 29 May 03:22:22 03:24:49 13° 91° (E) 03:27:16 435.822/435.867
Tancredo 1 29 May 03:24:04 03:26:28 21° 228° (SW) 03:28:51 437.200
BEESAT 29 May 03:27:41 03:32:26 89° 256° (WSW) 03:37:14 436.000
CUBESAT XI-V 29 May 03:41:55 03:43:54 13° 63° (ENE) 03:45:54 437.345
Gurwin Techsat 1B 29 May 03:52:09 03:57:06 41° 290° (WNW) 04:02:03 435.225
Oscar 19 29 May 03:52:42 03:56:47 24° 294° (WNW) 04:00:51 437.125/150
YUBILEINY 29 May 03:58:18 04:02:49 15° 299° (WNW) 04:07:23 435.215
PCSat 29 May 04:05:09 04:10:26 49° 57° (ENE) 04:15:40 145.827
RS-15 29 May 04:10:47 04:22:11 44° 316° (NW) 04:33:50 29.354- 29.394
AO-85 29 May 04:11:51 04:15:58 56° 118° (ESE) 04:19:54 145.980
MOZHAYETS 4 29 May 04:22:44 04:27:06 42° 262° (W) 04:31:30
ITUPSAT 1 29 May 04:35:29 04:38:50 19° 266° (W) 04:42:12 437.325
O/OREOS (USA 219) 29 May 04:49:13 04:53:16 30° 298° (WNW) 04:57:19 437.305
AO-7 29 May 04:53:09 05:01:33 76° 106° (ESE) 05:09:55 .
KKS-1 29 May 04:54:57 04:59:18 62° 74° (ENE) 05:03:41 437.445
ITAMSAT 1 29 May 04:59:32 05:04:43 68° 286° (WNW) 05:09:54 435.822/435.867
BEESAT 2 29 May 05:01:02 05:04:01 21° 111° (ESE) 05:07:03 435.950
JUGNU 29 May 05:01:40 05:03:23 11° 184° (S) 05:05:05 437.505
BEESAT 3 29 May 05:13:28 05:17:25 88° 107° (ESE) 05:21:26 437.485
CUBESAT XI-V 29 May 05:16:00 05:20:41 68° 259° (W) 05:25:23 437.345
STARS 29 May 05:17:55 05:22:03 45° 72° (ENE) 05:26:13 437.465
SO-50 29 May 05:29:20 05:29:35 10° 38° (NE) 05:29:49 436.795
SRMSAT 29 May 05:47:25 05:48:37 11° 173° (S) 05:49:49 437.500
PCSat 29 May 05:49:25 05:53:26 21° 254° (WSW) 05:57:25 145.827
AO-85 29 May 05:54:22 05:56:38 14° 314° (NW) 05:58:53 145.980
DOVE 4 29 May 05:59:27 06:02:05 16° 94° (E) 06:04:47 437.250
STRAND 1 29 May 06:15:43 06:16:35 10° 59° (ENE) 06:17:27 437.568
XW-2D 29 May 06:16:14 06:17:41 12° 91° (E) 06:19:06 145.860 - 145.880
XW-2B 29 May 06:23:40 06:25:46 14° 92° (E) 06:27:52 145.730 - 145.750
NUDT-PHONESAT 29 May 06:25:03 06:25:55 11° 91° (E) 06:26:49 437.300
RS-15 29 May 06:30:58 06:39:22 20° 349° (NNW) 06:47:45 29.354- 29.394
XW-2F 29 May 06:33:36 06:36:18 18° 94° (E) 06:38:59 145.980 - 146.000
KKS-1 29 May 06:35:05 06:36:14 11° 269° (W) 06:37:23 437.445
KAITUO 1B 29 May 06:36:25 06:38:47 16° 93° (E) 06:41:08 145.475/437.950
XW-2C 29 May 06:36:44 06:39:43 21° 95° (E) 06:42:39 145.795 - 145.815
BEESAT 2 29 May 06:38:00 06:41:35 31° 308° (NW) 06:45:12 435.950
AO-7 29 May 06:47:09 06:53:29 25° 305° (NW) 06:59:49 .
BEESAT 3 29 May 06:54:45 06:55:36 11° 319° (NW) 06:56:26 437.485
STARS 29 May 06:56:12 06:58:36 15° 267° (W) 07:01:01 437.465
SO-50 29 May 07:06:22 07:10:52 68° 57° (ENE) 07:15:23 436.795
HO-68 29 May 07:15:35 07:19:47 16° 91° (E) 07:23:57 435.675
CUTE-I 29 May 07:15:43 07:20:57 52° 100° (E) 07:26:09 437.470
LilacSat-2 29 May 07:17:34 07:21:27 76° 101° (ESE) 07:25:17 437.200
NO-84 29 May 07:31:29 07:35:33 38° 129° (SE) 07:39:36 435.350 FM
SRMSAT 29 May 07:34:56 07:36:52 12° 184° (S) 07:38:46 437.500
DOVE 4 29 May 07:36:02 07:39:54 38° 287° (WNW) 07:43:56 437.250
XW-2A 29 May 07:41:12 07:42:23 11° 92° (E) 07:43:34 145.665 - 145.685
XW-2D 29 May 07:48:24 07:52:04 42° 286° (WNW) 07:55:42 145.860 - 145.880
STRAND 1 29 May 07:49:51 07:54:56 88° 79° (ENE) 08:00:05 437.568
CUBEBUG 2 29 May 07:53:21 07:55:24 13° 91° (E) 07:57:29 437.445
NUDT-PHONESAT 29 May 07:56:27 08:00:04 45° 286° (WNW) 08:03:39 437.300
XW-2B 29 May 07:56:33 08:00:05 35° 287° (WNW) 08:03:35 145.730 - 145.750
M-CUBED/EXP-1 PRIME 29 May 08:04:23 08:07:54 27° 67° (ENE) 08:11:12 437.505
XW-2F 29 May 08:07:09 08:10:26 27° 289° (WNW) 08:13:40 145.980 - 146.000
KAITUO 1B 29 May 08:09:29 08:12:51 31° 288° (WNW) 08:16:11 145.475/437.950
XW-2C 29 May 08:10:41 08:13:50 24° 290° (WNW) 08:16:56 145.795 - 145.815
CUTE 1.7 + AOD 2 29 May 08:18:25 08:22:33 46° 99° (E) 08:26:36 437.475
AAUSAT CUBESAT 2 29 May 08:18:40 08:20:31 13° 91° (E) 08:22:21 437.432
AO-73 29 May 08:47:25 08:50:00 15° 91° (E) 08:52:36 145.935
RS-15 29 May 08:48:34 08:58:11 25° 25° (NNE) 09:07:31 29.354- 29.394
SO-50 29 May 08:49:13 08:50:44 11° 252° (WSW) 08:52:15 436.795
CUTE-I 29 May 08:56:49 09:00:33 20° 296° (WNW) 09:04:19 437.470
HO-68 29 May 09:01:00 09:08:14 83° 287° (WNW) 09:15:25 435.675
SEEDS 29 May 09:01:43 09:05:56 84° 281° (WNW) 09:10:06 437.485
ZACube-1 29 May 09:02:20 09:06:04 24° 95° (E) 09:09:47 437.345
NO-84 29 May 09:09:14 09:13:13 33° 325° (NW) 09:17:07 435.350 FM
UNISAT 6 29 May 09:09:37 09:11:04 12° 63° (ENE) 09:12:30 437.425
XW-2A 29 May 09:12:06 09:15:15 34° 287° (WNW) 09:18:25 145.665 - 145.685
FO-29 29 May 09:24:46 09:28:40 22° 64° (ENE) 09:32:42 435.910
CUBEBUG 2 29 May 09:27:45 09:32:19 60° 285° (WNW) 09:36:58 437.445
UWE-3 29 May 09:31:29 09:36:08 90° 316° (NW) 09:40:49 435.000/436.395/437.385
M-CUBED/EXP-1 PRIME 29 May 09:38:58 09:42:16 22° 258° (WSW) 09:45:24 437.505
DELFI C3 29 May 09:45:19 09:46:25 11° 91° (E) 09:47:30 145.870
Oscar 11 29 May 09:51:36 09:55:54 59° 100° (E) 10:00:11 .
AAUSAT CUBESAT 2 29 May 09:52:15 09:56:13 46° 286° (WNW) 10:00:08 437.432
PRISM 29 May 09:53:16 09:57:12 45° 73° (ENE) 10:01:09 437.425
CUTE 1.7 + AOD 2 29 May 09:55:39 09:57:57 14° 294° (WNW) 10:00:14 437.475
TIGRISAT 29 May 10:10:22 10:14:29 49° 73° (ENE) 10:18:42 435.000
AO-73 29 May 10:22:03 10:26:28 49° 287° (WNW) 10:30:52 145.935
EO-88 29 May 10:34:33 10:37:51 31° 97° (E) 10:41:08 145.990 - 145.960
ZACube-1 29 May 10:38:18 10:42:18 30° 290° (WNW) 10:46:18 437.345
UNISAT 6 29 May 10:42:57 10:47:11 62° 259° (W) 10:51:30 437.425
NO-84 29 May 10:50:48 10:51:54 11° 344° (NNW) 10:52:59 435.350 FM
HO-68 29 May 10:50:55 10:54:52 16° 305° (NW) 10:58:50 435.675
RS-15 29 May 11:01:26 11:13:39 67° 54° (NE) 11:25:10 29.354- 29.394
FO-29 29 May 11:08:39 11:13:30 40° 262° (W) 11:18:31 435.910
NANOSAT C BR1 29 May 11:17:19 11:20:01 17° 66° (ENE) 11:22:43 145.865
DELFI C3 29 May 11:17:40 11:21:27 47° 286° (WNW) 11:25:12 145.870
POLYITAN 1 29 May 11:24:16 11:27:32 22° 68° (ENE) 11:30:49 437.675
DUCHIFAT 1 29 May 11:26:00 11:28:55 19° 67° (ENE) 11:31:51 145.980
AIST 2D 29 May 11:26:07 11:29:28 42° 74° (ENE) 11:32:51 435.315
Oscar 11 29 May 11:29:45 11:31:30 12° 296° (WNW) 11:33:15 .
PRISM 29 May 11:30:43 11:32:42 13° 268° (W) 11:34:40 437.425
QB50P2 29 May 11:32:40 11:36:19 30° 71° (ENE) 11:40:01 145.880/145.840
TIGRISAT 29 May 11:49:33 11:51:29 13° 269° (W) 11:53:25 435.000
YUBILEINY 29 May 12:07:42 12:16:15 50° 76° (ENE) 12:24:43 435.215
EO-79 29 May 12:08:03 12:12:13 72° 76° (ENE) 12:16:24 145.935-145.965
EO-88 29 May 12:09:02 12:11:16 15° 292° (WNW) 12:13:28 145.990 - 145.960
ESTCUBE 1 29 May 12:12:00 12:16:09 35° 97° (E) 12:20:15 437.505/2401.250
SPROUT 29 May 12:25:28 12:26:56 12° 91° (E) 12:28:24 437.525
LO-87 29 May 12:40:23 12:43:48 45° 286° (WNW) 12:47:14 145.935 - 145.965
AO-85 29 May 12:43:56 12:47:34 31° 53° (NE) 12:51:23 145.980
NANOSAT C BR1 29 May 12:51:32 12:55:24 37° 262° (W) 12:59:19 145.865
VELOX 1 29 May 12:54:00 12:57:36 24° 96° (E) 13:01:10 145.980
POLYITAN 1 29 May 12:59:33 13:03:09 28° 264° (W) 13:06:48 437.675
DUCHIFAT 1 29 May 13:00:34 13:04:20 33° 263° (W) 13:08:07 145.980
BUGSAT 1 29 May 13:05:10 13:09:09 79° 76° (ENE) 13:13:10 437.445
QB50P2 29 May 13:09:00 13:12:07 20° 266° (W) 13:15:17 145.880/145.840
RS-15 29 May 13:14:59 13:25:13 35° 256° (WSW) 13:35:03 29.354- 29.394
DX 1 29 May 13:19:41 13:22:19 16° 93° (E) 13:24:56 434.975-435.025
BEESAT 2 29 May 13:20:42 13:22:00 11° 42° (NE) 13:23:17 435.950
O/OREOS (USA 219) 29 May 13:20:54 13:25:06 37° 63° (ENE) 13:29:16 437.305
Oscar 19 29 May 13:28:13 13:33:12 50° 72° (ENE) 13:38:13 437.125/150
50 SAT 29 May 13:30:04 13:33:03 28° 97° (E) 13:36:00 437.505
BEESAT 3 29 May 13:31:38 13:35:16 32° 52° (NE) 13:38:52 437.485
Gurwin Techsat 1B 29 May 13:32:29 13:37:10 33° 68° (ENE) 13:41:54 435.225
ESTCUBE 1 29 May 13:49:23 13:52:41 20° 293° (WNW) 13:55:59 437.505/2401.250
SPROUT 29 May 13:58:57 14:03:09 55° 286° (WNW) 14:07:20 437.525
AO-7 29 May 14:01:29 14:07:00 20° 52° (NE) 14:12:31 .
YUBILEINY 29 May 14:05:02 14:12:40 34° 275° (W) 14:20:18 435.215
NO-84 29 May 14:07:31 14:10:17 18° 27° (NNE) 14:12:53 435.350 FM
AO-85 29 May 14:24:34 14:27:48 22° 247° (WSW) 14:31:10 145.980
VELOX 1 29 May 14:30:16 14:33:59 27° 291° (WNW) 14:37:40 145.980
ITAMSAT 1 29 May 14:38:40 14:42:16 19° 64° (ENE) 14:45:53 435.822/435.867
UKube-1 29 May 14:39:46 14:44:06 89° 110° (ESE) 14:48:24 .
DX 1 29 May 14:54:35 14:58:40 41° 288° (WNW) 15:02:44 434.975-435.025
BEESAT 2 29 May 14:56:15 15:00:19 84° 239° (WSW) 15:04:20 435.950
ITUPSAT 1 29 May 15:00:17 15:01:58 12° 91° (E) 15:03:39 437.325
O/OREOS (USA 219) 29 May 15:01:04 15:04:11 19° 260° (W) 15:07:16 437.305
50 SAT 29 May 15:03:50 15:05:38 14° 292° (WNW) 15:07:25 437.505
Oscar 19 29 May 15:09:12 15:12:46 18° 267° (W) 15:16:20 437.125/150
BEESAT 3 29 May 15:09:40 15:12:38 20° 249° (WSW) 15:15:34 437.485
Gurwin Techsat 1B 29 May 15:12:32 15:17:05 29° 264° (W) 15:21:40 435.225
BEESAT 29 May 15:29:35 15:33:33 25° 96° (E) 15:37:29 436.000
NO-84 29 May 15:44:31 15:48:17 71° 227° (SW) 15:51:41 435.350 FM
AO-7 29 May 15:50:21 15:58:38 89° 73° (ENE) 16:07:01 .
ITAMSAT 1 29 May 16:16:20 16:21:19 50° 260° (W) 16:26:22 435.822/435.867
MOZHAYETS 4 29 May 16:18:43 16:23:14 48° 99° (E) 16:27:41
